RH
8 9 9 8 7 22 52 62 90 82 74 57 54 50 57 68 74 100 100 100 100 100 100 100 100 100 100 88 80 73 75 99 88 72 75 61 57 47 50 41 33 30 28 21 21
9 9 10 11 9 14 35 58 68 67 96 80 71 61 65 64 68 81 100 100 100 100 100 100 100 100 100 99 80 80 80 95 78 69 67 63 58 50 42 36 28 21 20 18 16
9 10 11 11 11 12 24 52 78 93 97 100 88 81 72 74 74 62 76 100 100 100 100 100 100 100 100 100 84 78 88 80 80 66 58 52 46 44 34 20 16 14 13 12 11
8 9 11 13 13 13 16 46 56 86 100 100 100 93 92 74 77 73 75 66 99 100 100 100 100 100 100 100 94 69 75 76 65 60 51 44 36 30 24 17 13 14 13 12 12
8 9 9 11 15 16 18 22 68 71 96 100 100 100 97 96 98 94 73 73 74 90 100 100 100 100 100 100 100 77 74 69 61 60 56 46 42 37 33 28 19 20 18 18 16
9 11 11 11 12 15 18 22 29 48 71 100 100 100 100 98 100 89 79 78 72 72 91 100 100 100 100 100 100 91 77 70 60 66 63 57 56 52 45 37 30 29 28 21 19
12 13 15 14 16 14 16 21 31 41 61 88 100 100 98 100 98 96 92 93 88 81 78 91 100 100 100 100 100 87 85 80 79 58 64 63 67 61 59 53 54 42 32 27 28
20 20 20 21 20 22 20 19 30 46 60 78 92 100 100 100 100 100 90 79 89 99 90 85 96 100 100 100 100 97 93 94 94 78 62 63 66 68 66 86 80 62 59 46 38
20 23 26 26 27 26 25 24 24 41 60 86 82 96 100 100 96 100 95 80 82 80 100 100 90 94 100 100 100 99 100 100 100 98 85 73 59 54 58 66 93 76 73 60 53
13 11 14 26 36 32 33 35 30 31 39 61 83 96 100 100 100 100 81 64 67 80 86 97 98 96 93 100 100 100 100 100 100 100 99 89 81 88 64 55 70 100 98 76 71
4 5 5 8 24 42 41 44 34 25 24 46 78 67 95 92 94 79 74 72 57 45 67 100 100 100 95 100 100 100 100 100 100 100 99 100 99 97 94 77 70 54 57 100 84
2 2 3 4 8 27 41 43 41 59 69 42 43 53 87 81 85 88 86 67 51 42 53 100 100 100 100 99 96 98 98 99 100 100 100 100 100 99 89 70 68 82 91 100 100
2 2 2 3 6 11 35 50 55 86 66 57 27 28 51 59 69 64 65 53 54 57 78 97 100 100 100 99 94 90 82 79 74 84 93 91 95 94 89 95 89 90 85 93 100
2 2 2 3 4 8 20 44 64 84 74 64 42 31 36 52 67 52 54 57 74 72 87 100 100 100 100 100 100 97 96 86 72 71 74 83 78 90 97 100 90 92 99 90 80
3 2 2 2 4 6 10 34 62 80 73 55 41 35 30 40 62 58 54 76 90 92 91 98 100 100 100 100 100 100 100 95 98 93 86 92 79 83 95 100 96 93 79 78 69
2 2 2 2 3 5 11 31 62 64 56 44 42 34 47 59 64 74 88 99 100 100 98 100 100 100 100 100 100 100 100 100 91 86 77 97 72 62 92 95 91 92 71 68 59
2 2 2 2 3 5 10 27 53 55 40 57 50 51 54 79 82 94 100 100 99 100 100 100 100 100 100 100 100 100 92 91 94 98 88 76 59 54 80 52 41 44 46 48 41
2 2 2 3 3 4 9 18 35 36 51 69 64 58 74 90 93 98 99 98 100 97 94 96 100 99 100 98 94 100 100 84 50 43 41 44 43 47 43 39 30 27 28 32 35
2 2 2 3 4 6 9 20 28 52 84 73 55 70 96 100 100 96 97 97 91 86 65 40 43 47 59 61 52 47 56 84 100 85 57 48 40 28 33 21 20 19 18 23 26
2 2 2 3 4 7 9 18 43 69 92 75 88 97 100 100 95 96 86 59 36 33 50 72 70 88 64 58 80 100 100 95 82 60 47 31 17 14 15 13 10 8 8 11 18
3 2 3 4 5 9 14 39 70 79 81 78 87 99 99 99 84 57 46 48 55 66 76 79 74 83 99 100 100 90 71 63 75 64 42 30 34 4 6 7 8 5 3 5 8
4 3 3 5 7 11 24 52 64 88 87 92 100 100 100 90 64 50 55 69 77 91 87 90 100 100 92 82 65 66 75 77 80 71 38 27 21 12 5 4 2 2 2 2 4
4 4 4 6 7 18 37 56 78 92 85 90 95 99 100 84 65 61 60 75 86 90 99 100 94 83 73 69 78 85 93 79 73 85 73 34 15 10 5 4 3 2 1 2 3
6 6 6 7 10 19 39 57 70 81 92 90 92 100 100 89 71 60 72 79 91 100 99 90 77 81 70 68 91 95 100 96 80 96 88 52 22 10 6 4 3 2 2 2 6
8 9 7 10 13 28 57 64 63 83 90 91 99 100 100 89 74 71 73 80 100 99 86 77 87 94 85 77 76 99 80 94 72 83 97 77 39 10 8 5 4 3 3 3 5
10 11 12 9 15 27 52 71 84 91 94 95 98 100 96 76 77 72 81 100 100 90 75 90 96 85 98 89 84 85 82 100 97 100 86 99 58 24 10 8 6 6 8 6 6
11 13 12 13 16 35 61 84 87 96 100 99 97 100 97 91 89 90 97 100 98 73 86 93 83 84 100 91 78 81 100 100 100 100 100 99 83 38 20 15 13 15 14 13 14
Wind_Speed
44 50 58 65 68 73 80 80 81 79 79 79 80 79 78 78 80 76 76 74 72 73 72 71 70 70 71 73 72 71 69 63 70 75 76 75 72 73 73 75 75 75 80 77 79
43 48 54 61 65 69 74 79 80 81 82 81 78 78 78 79 81 82 78 74 74 77 74 72 73 72 72 72 69 67 65 63 71 70 71 70 68 67 69 71 72 73 76 74 75
41 45 52 58 63 66 71 74 78 81 80 80 79 79 80 80 79 82 81 79 76 76 78 79 75 70 69 69 70 69 63 70 67 67 67 66 65 66 66 65 67 69 71 68 67
39 44 50 56 62 65 70 72 75 75 81 80 77 79 80 79 79 81 83 81 83 80 78 77 76 71 70 68 71 70 66 66 64 63 66 64 64 63 64 63 66 70 69 66 67
40 41 47 53 60 65 69 72 77 76 78 81 79 77 76 74 79 84 83 85 85 86 82 79 78 76 72 70 70 72 71 66 63 61 63 62 58 59 55 59 61 61 62 63 65
39 42 44 50 55 62 67 71 74 77 79 81 84 81 80 76 73 82 84 84 85 84 87 85 81 77 75 74 70 72 72 69 67 63 61 59 57 53 52 55 53 53 56 61 62
39 41 45 47 49 56 63 68 70 74 76 81 81 82 82 78 78 76 82 88 89 86 85 86 89 84 80 79 76 76 74 70 67 66 60 60 55 53 57 51 48 46 48 54 58
45 44 46 48 49 50 54 64 68 72 76 78 79 79 82 81 78 74 77 81 87 90 88 87 87 86 86 82 82 78 75 73 70 70 66 61 59 59 58 57 51 49 47 47 50
54 52 52 52 53 51 51 55 66 71 72 74 77 82 81 84 78 76 75 79 79 87 90 91 89 86 87 84 80 80 76 75 73 72 69 67 61 64 62 63 54 52 53 54 53
68 62 58 58 59 56 54 54 60 68 70 72 74 79 80 81 80 79 76 75 78 82 88 91 90 89 86 85 85 82 79 77 77 76 75 73 69 71 68 69 61 59 60 59 58
57 59 58 55 63 64 60 59 57 53 57 69 75 71 81 82 79 77 70 68 73 76 82 88 89 91 89 85 84 85 85 82 82 80 78 76 74 72 72 72 72 67 65 62 61
51 51 51 48 53 66 67 61 52 52 59 65 70 72 73 74 74 70 65 64 67 70 74 85 89 87 85 85 84 83 83 82 81 82 80 79 74 76 76 72 73 73 71 70 67
47 45 44 42 47 58 70 66 55 56 56 53 56 64 70 67 66 66 64 63 64 66 71 77 89 85 83 82 82 82 81 82 83 83 82 82 76 84 78 78 78 80 78 77 73
43 36 33 39 46 51 65 69 60 56 57 53 50 58 61 60 60 58 59 58 59 63 66 72 81 83 82 82 83 82 82 83 84 84 85 85 82 85 85 85 85 85 86 82 80
35 28 26 33 40 50 56 67 65 59 58 53 49 50 55 54 54 55 54 53 54 60 63 66 76 80 81 82 81 83 83 85 87 89 87 87 92 78 88 90 91 90 87 88 88
33 22 20 27 38 45 53 69 70 64 58 44 43 48 49 47 49 50 47 49 52 53 57 60 64 72 76 79 82 82 82 83 85 86 85 86 98 82 86 94 95 96 96 95 95
30 19 15 24 34 43 51 67 71 61 41 40 42 45 44 44 45 45 47 48 50 52 55 59 64 67 70 73 75 75 75 78 81 84 84 92 102 93 92 101 100 101 102 103 100
27 15 10 16 31 38 48 62 60 42 41 36 42 43 41 40 40 43 44 44 46 48 50 51 56 62 66 68 69 72 74 77 75 77 76 80 90 87 91 96 92 93 96 103 105
26 14 5 18 26 34 43 54 48 42 40 37 37 36 35 37 39 41 42 44 45 47 48 47 47 47 45 45 46 42 49 62 72 79 83 83 90 86 96 92 88 81 82 94 100
27 14 2 11 23 31 37 44 45 43 38 37 41 39 39 37 37 38 39 38 35 32 27 22 20 22 25 27 36 45 53 61 71 75 82 80 80 78 75 76 75 73 77 96 100
28 13 6 12 21 31 42 46 48 41 36 39 40 36 33 31 30 31 31 30 27 23 20 19 19 22 24 28 37 43 45 44 48 59 68 66 67 52 47 51 61 67 69 79 96
25 11 6 14 21 34 47 49 44 40 40 41 40 34 28 28 28 31 32 29 25 19 17 16 16 19 25 28 27 25 23 32 39 51 49 49 56 54 47 46 51 55 58 60 77
25 13 7 15 24 41 48 48 43 40 42 43 40 33 28 30 32 32 31 26 22 21 17 17 19 22 19 14 13 19 29 35 38 43 43 43 38 41 41 40 38 41 46 45 50
26 12 7 15 24 42 45 46 43 43 47 45 39 31 30 32 31 30 28 24 22 18 17 16 19 15 12 8 11 20 28 33 39 43 44 43 36 29 28 28 27 27 34 39 39
23 8 3 20 26 40 47 45 41 44 48 45 40 33 32 34 33 29 26 22 19 17 16 15 11 11 11 8 14 17 24 32 37 45 46 44 38 23 19 16 13 17 22 33 38
20 9 7 14 30 38 41 42 40 43 47 45 41 36 34 32 28 25 22 19 19 17 15 14 10 7 11 14 11 13 22 29 37 44 46 48 34 31 20 10 1 8 13 22 31
18 9 8 19 30 40 46 47 45 44 49 48 45 38 35 33 31 25 22 21 20 16 14 13 10 8 7 6 6 12 22 29 41 46 44 45 45 34 21 13 12 11 10 16 28
Wind_Direction
258 247 244 241 238 238 240 238 235 235 237 236 236 235 234 233 231 230 231 233 232 233 234 236 238 242 244 247 249 250 250 250 250 252 252 254 252 253 256 257 257 258 260 261 258
264 254 246 244 242 238 237 240 239 235 234 235 236 236 235 233 233 230 229 229 231 233 233 233 236 241 243 245 248 249 250 250 252 254 256 256 257 257 258 258 259 259 258 259 259
269 258 249 243 241 239 237 238 240 238 233 234 235 234 234 234 235 234 231 229 228 233 235 236 238 240 242 243 245 247 249 251 254 255 258 260 260 259 260 257 255 257 258 257 257
273 263 251 246 241 238 237 237 238 234 235 232 234 234 233 233 234 234 232 234 231 230 233 233 235 237 240 243 246 247 247 250 254 256 259 261 262 261 257 256 256 255 255 255 256
279 268 259 246 241 239 238 236 235 236 234 232 230 233 234 233 233 235 233 232 233 234 232 231 234 235 237 241 245 247 247 248 253 257 259 260 259 259 261 257 255 256 257 257 257
282 271 262 256 244 238 237 236 234 234 233 232 231 233 233 235 233 234 234 231 232 233 236 235 235 235 237 240 242 248 250 251 255 253 255 254 255 259 260 257 258 258 259 257 258
280 273 266 257 253 244 238 235 234 233 233 233 232 233 235 232 234 234 232 232 232 234 234 237 238 238 238 241 246 248 250 253 253 255 252 253 254 254 259 258 259 261 262 261 261
282 270 263 261 254 248 244 236 233 232 233 232 232 231 232 234 234 235 233 232 233 235 234 236 237 238 240 241 243 246 249 251 252 253 254 257 254 251 254 259 260 261 264 269 271
282 270 261 257 254 250 242 239 232 230 230 232 234 232 232 232 232 233 234 233 233 233 233 234 236 237 238 240 243 246 247 250 251 254 256 255 252 258 252 257 261 263 263 264 266
286 280 265 250 249 248 244 237 234 231 230 229 231 233 234 232 232 234 233 235 236 234 233 233 234 237 239 240 241 244 246 248 250 252 254 257 259 260 259 259 258 262 261 262 263
285 278 273 255 242 241 241 238 235 234 235 232 228 229 231 234 234 238 240 239 236 236 233 232 234 235 238 240 241 243 245 248 251 252 255 257 259 259 260 260 258 258 264 265 265
293 280 268 261 242 234 236 237 234 230 230 230 229 227 229 231 235 237 236 236 235 235 232 231 232 235 237 239 241 242 245 248 250 252 253 255 255 257 256 259 262 259 260 263 262
297 284 270 254 235 229 228 230 227 225 230 233 229 226 229 230 233 233 232 232 232 232 231 232 233 235 237 240 241 244 247 249 250 251 253 252 251 254 256 258 259 260 258 259 259
304 292 269 246 230 224 219 221 222 222 226 226 223 222 222 224 228 232 229 230 230 229 230 232 233 235 238 240 243 247 249 250 252 253 253 255 253 255 256 257 257 257 260 258 260
311 297 266 245 225 219 214 213 216 219 222 219 218 217 219 220 223 226 226 227 229 229 231 233 234 235 239 243 246 249 251 252 254 256 257 260 258 253 257 258 256 256 256 258 254
321 307 264 236 218 212 205 207 210 217 218 215 214 212 214 216 220 221 223 222 225 228 229 232 235 238 242 245 249 251 253 255 257 260 261 261 262 254 257 256 255 256 254 253 255
331 312 255 226 211 206 201 202 209 213 213 213 211 211 210 211 215 216 217 221 223 225 229 231 237 240 244 247 250 253 256 260 261 264 266 264 263 265 259 256 254 251 251 252 251
340 323 255 213 210 205 199 201 205 205 203 207 207 206 203 206 210 214 218 222 225 225 229 232 236 240 243 247 251 257 262 266 267 268 266 265 267 265 262 256 254 252 250 250 249
355 346 251 201 197 201 199 197 194 196 199 203 201 198 200 204 211 215 220 228 230 233 237 238 238 243 246 248 253 261 269 272 274 275 275 271 273 273 268 266 261 253 250 248 245
2 356 338 187 192 192 190 188 185 190 193 192 187 189 195 203 210 213 224 228 219 211 206 214 219 241 248 262 272 273 274 276 279 282 282 283 277 274 269 267 264 254 244 243 243
6 357 117 177 184 182 180 179 184 186 188 188 182 185 193 202 212 214 199 187 181 185 195 213 228 253 261 265 270 279 283 293 302 294 288 289 283 277 278 271 261 261 260 248 243
17 4 124 163 171 169 174 178 180 180 181 179 177 182 191 194 192 181 172 172 174 183 200 211 229 246 258 278 286 296 322 334 331 321 306 294 288 293 290 278 266 258 253 242 243
26 24 129 161 170 170 175 175 174 179 178 175 176 178 185 182 179 176 173 170 170 182 196 215 238 254 266 301 310 326 339 338 348 341 337 330 301 289 286 280 273 259 246 240 237
27 19 145 161 166 169 173 174 175 175 176 175 174 175 176 176 176 178 175 174 181 193 212 230 253 272 285 304 322 330 333 342 356 360 354 342 325 301 290 286 274 251 244 228 217
30 17 168 168 168 173 173 175 175 176 178 177 174 177 179 177 179 182 181 185 194 210 222 247 263 251 292 287 316 307 333 350 355 10 8 357 339 321 315 303 273 238 231 215 204
35 31 199 183 174 175 173 175 175 179 181 182 181 181 189 188 188 190 191 197 210 215 236 250 243 305 280 306 311 347 359 3 10 13 9 15 6 353 354 360 180 172 187 197 201
36 29 210 199 184 180 179 179 178 181 185 190 188 185 191 195 195 199 201 203 213 221 238 241 241 356 282 329 296 8 11 21 17 17 11 16 23 18 15 37 79 103 149 180 191